This demonstration page uses our WeatherBlox Daily Observations layout. Learn more.

Hourly Observations for September 12, 2019

Temp ( °F °C ) Dew Point ( °F °C ) Humidity (%) Winds ( mph kmh ) Pressure ( in mb ) Visibility ( mi km ) Precip ( " mm )
12:15 am 00:15 Clear 73 23 68 20 83 83 SW 6 9 30.09 1019 10 16.09344 0 0
12:35 am 00:35 Clear 73 23 68 20 83 83 SW 5 7 30.09 1019 10 16.09344 0 0
12:55 am 00:55 Clear 73 23 68 20 83 83 WSW 6 9 30.09 1019 10 16.09344 0 0
1:15 am 01:15 Clear 73 23 68 20 83 83 WSW 5 7 30.09 1019 10 16.09344 0 0
1:35 am 01:35 Clear 73 23 68 20 83 83 WSW 6 9 30.09 1019 10 16.09344 0 0
1:55 am 01:55 Clear 73 23 68 20 83 83 WSW 7 11 30.09 1019 10 16.09344 0 0
2:15 am 02:15 Clear 73 23 68 20 83 83 WSW 5 7 30.09 1019 10 16.09344 0 0
2:35 am 02:35 Clear 73 23 68 20 83 83 W 5 7 30.06 1018 10 16.09344 0 0
2:55 am 02:55 Clear 73 23 68 20 83 83 WSW 7 11 30.06 1018 10 16.09344 0 0
3:15 am 03:15 Clear 73 23 68 20 83 83 WSW 7 11 30.06 1018 10 16.09344 0 0
3:35 am 03:35 Clear 72 22 68 20 88 88 W 3 6 30.06 1018 10 16.09344 0 0
3:55 am 03:55 Clear 72 22 68 20 88 88 W 3 6 30.06 1018 10 16.09344 0 0
4:15 am 04:15 Clear 72 22 68 20 88 88 W 3 6 30.06 1018 10 16.09344 0 0
4:35 am 04:35 Clear 72 22 68 20 88 88 SW 3 6 30.06 1018 10 16.09344 0 0
4:55 am 04:55 Clear 72 22 68 20 88 88 SSW 3 6 30.09 1019 10 16.09344 0 0
5:15 am 05:15 Clear 70 21 68 20 94 94 Calm 30.09 1019 10 16.09344 0 0
5:35 am 05:35 Clear 70 21 68 20 94 94 Calm 30.09 1019 10 16.09344 0 0
5:55 am 05:55 Clear 68 20 68 20 100 100 Calm 30.09 1019 10 16.09344 0 0
6:15 am 06:15 Clear 68 20 68 20 100 100 Calm 30.09 1019 10 16.09344 0 0
6:35 am 06:35 Clear 68 20 68 20 100 100 Calm 30.09 1019 10 16.09344 0 0
6:55 am 06:55 Sunny 70 21 68 20 94 94 Calm 30.12 1020 10 16.09344 0 0
7:15 am 07:15 Sunny 70 21 68 20 94 94 Calm 30.12 1020 10 16.09344 0 0
7:35 am 07:35 Sunny 68 20 68 20 100 100 Calm 30.12 1020 10 16.09344 0 0
7:55 am 07:55 Sunny 72 22 68 20 88 88 Calm 30.12 1020 10 16.09344 0 0
8:15 am 08:15 Sunny 73 23 70 21 89 89 Calm 30.12 1020 10 16.09344 0 0
8:35 am 08:35 Sunny 75 24 70 21 83 83 Calm 30.12 1020 10 16.09344 0 0
8:55 am 08:55 Sunny 77 25 70 21 79 79 Calm 30.12 1020 10 16.09344 0 0
9:15 am 09:15 Sunny 79 26 70 21 74 74 NW 3 6 30.12 1020 10 16.09344 0 0
9:35 am 09:35 Sunny 82 28 70 21 66 66 WNW 3 6 30.12 1020 10 16.09344 0 0
9:50 am 09:50 Sunny 82 28 70 21 66 66 WNW 7 11 30.12 1020 10 16.09344 0 0
10:15 am 10:15 Sunny 86 30 70 21 59 59 NW 10 17 30.12 1020 10 16.09344 0 0
10:35 am 10:35 Sunny 86 30 70 21 59 59 WNW 9 15 30.12 1020 10 16.09344 0 0
10:55 am 10:55 Sunny 88 31 70 21 55 55 NW 9 15 30.12 1020 10 16.09344 0 0
11:15 am 11:15 Sunny 88 31 70 21 55 55 NW 10 17 30.12 1020 10 16.09344 0 0
11:35 am 11:35 Sunny 88 31 70 21 55 55 NW 12 19 30.12 1020 10 16.09344 0 0
11:55 am 11:55 Sunny 90 32 70 21 52 52 NW 12 19 30.09 1019 10 16.09344 0 0
12:15 pm 12:15 Sunny 90 32 70 21 52 52 WNW 12 19 30.06 1018 10 16.09344 0 0
12:35 pm 12:35 Partly Cloudy 90 32 70 21 52 52 W 3 6 30.06 1018 10 16.09344 0 0
12:55 pm 12:55 Mostly Cloudy 90 32 68 20 49 49 W 13 20 30.06 1018 N/A 0 0
1:15 pm 13:15 Mostly Cloudy 91 33 66 19 44 44 NNW 9 15 30.06 1018 N/A 0 0
1:35 pm 13:35 Partly Cloudy 90 32 66 19 46 46 N 8 13 30.06 1018 N/A 0 0
1:55 pm 13:55 Partly Cloudy 91 33 66 19 44 44 WNW 8 13 30.06 1018 N/A 0 0
2:15 pm 14:15 Partly Cloudy 93 34 66 19 41 41 NNW 9 15 30.06 1018 N/A 0 0
2:35 pm 14:35 Partly Cloudy 93 34 66 19 41 41 WNW 9 15 30.06 1018 N/A 0 0
2:55 pm 14:55 Mostly Cloudy 93 34 66 19 41 41 NNE 7 11 30.03 1017 N/A 0 0
3:15 pm 15:15 Mostly Cloudy 91 33 66 19 44 44 NNE 8 13 30.03 1017 10 16.09344 0 0
3:35 pm 15:35 Partly Cloudy 93 34 66 19 41 41 N 8 13 30.03 1017 10 16.09344 0 0
3:55 pm 15:55 Partly Cloudy 91 33 66 19 44 44 N 7 11 30.03 1017 10 16.09344 0 0
4:15 pm 16:15 Sunny 93 34 68 20 44 44 NW 6 9 30.03 1017 10 16.09344 0 0
4:35 pm 16:35 Sunny 93 34 66 19 41 41 Calm 30.03 1017 10 16.09344 0 0
4:55 pm 16:55 Mostly Cloudy 91 33 66 19 44 44 N 8 13 30.03 1017 10 16.09344 0 0
5:15 pm 17:15 Cloudy 91 33 64 18 41 41 N 8 13 30.03 1017 10 16.09344 0 0
5:35 pm 17:35 Cloudy 90 32 68 20 49 49 NE 12 19 30.03 1017 10 16.09344 0 0
5:55 pm 17:55 Mostly Cloudy 88 31 68 20 52 52 NE 7 11 30.03 1017 10 16.09344 0 0
6:15 pm 18:15 Partly Cloudy 88 31 68 20 52 52 ENE 6 9 30.09 1019 10 16.09344 0 0
6:35 pm 18:35 Sunny 86 30 68 20 55 55 E 3 6 30.09 1019 10 16.09344 0 0
6:55 pm 18:55 Sunny 86 30 68 20 55 55 ENE 3 6 30.09 1019 10 16.09344 0 0
7:15 pm 19:15 Sunny 86 30 70 21 59 59 ENE 3 6 30.09 1019 10 16.09344 0 0
7:35 pm 19:35 Partly Cloudy 84 29 70 21 62 62 Calm 30.12 1020 10 16.09344 0 0
7:55 pm 19:55 Partly Cloudy 84 29 70 21 62 62 Calm 30.12 1020 10 16.09344 0 0
8:15 pm 20:15 Mostly Cloudy 84 29 70 21 62 62 NE 3 6 30.12 1020 10 16.09344 0 0
8:35 pm 20:35 Cloudy 84 29 68 20 58 58 NNE 7 11 30.12 1020 10 16.09344 0 0
8:55 pm 20:55 Cloudy 84 29 68 20 58 58 NNE 15 24 30.15 1021 10 16.09344 0 0
9:15 pm 21:15 Cloudy 81 27 70 21 70 70 NE 7 11 30.15 1021 10 16.09344 0 0
9:35 pm 21:35 Mostly Cloudy 79 26 70 21 74 74 NNE 8 13 30.18 1022 10 16.09344 0 0
9:55 pm 21:55 Partly Cloudy 77 25 70 21 79 79 NE 6 9 30.18 1022 10 16.09344 0 0
10:15 pm 22:15 Partly Cloudy 77 25 70 21 79 79 NE 9 15 30.18 1022 10 16.09344 0 0
10:35 pm 22:35 Partly Cloudy 77 25 70 21 79 79 NE 7 11 30.18 1022 10 16.09344 0 0
10:55 pm 22:55 Clear 75 24 70 21 83 83 NE 7 11 30.18 1022 10 16.09344 0 0
11:15 pm 23:15 Clear 73 23 70 21 89 89 NE 7 11 30.18 1022 10 16.09344 0 0
11:35 pm 23:35 Clear 73 23 70 21 89 89 NE 8 13 30.18 1022 10 16.09344 0 0
11:55 pm 23:55 Mostly Cloudy 73 23 70 21 89 89 NE 8 13 30.21 1023 10 16.09344 0 0

Powered by AerisWeather